Location: Corcelles
(46.1547°N, 4.7234°E)
Time: 07:58:30
(UTC+00:00)

Cosmos 1238 Rocket - Pass Details

Date: 14 July 2020
Orbit: 374 x 1030 km, 82.9° (Epoch: 14 August)

Event Time Altitude Azimuth Distance (km) Brightness Sun altitude
Exits shadow 00:50:00 41° 225° (SW) 1,113 3.9 -20.7°
Maximum altitude 00:51:34 57° 280° (W) 867 3.7 -20.7°
Drops below altitude 10° 00:56:06 10° 360° (N) 2,049 6.8 -20.4°
Sets 00:58:10 0° 4° (N) 2,861 7.9 -20.3°
